Location: Aciu?a
(46.2833°N, 22.4500°E)
Time: 05:00:15
(UTC+00:00)

Cosmos 2333 Rocket - Pass Details

Date: 25 October 2021
Orbit: 837 x 865 km, 70.8° (Epoch: 04 December)

Event Time Altitude Azimuth Distance (km) Brightness Sun altitude
Rises 16:26:22 0° 160° (SSE) 3,383 5.2 -11.0°
Reaches altitude 10° 16:29:27 10° 143° (SE) 2,458 4.3 -11.5°
Maximum altitude 16:33:18 19° 100° (E) 1,910 3.5 -12.2°
Enters shadow 16:35:02 17° 77° (ENE) 2,041 3.6 -12.5°
